| time (UTC) | temp F | wind direction | speed MPH | gust MPH | rain 1hr in | rain 24hr in | rain mn in | humidity % | barometer mb |
| 20260902070010 | 53 | 344 | 0.0 | 0.0 | 0.00 | 0.00 | 0.00 | 81 | 1019.2 |
| 20260902065010 | 54 | 344 | 0.0 | 0.0 | 0.00 | 0.00 | 0.00 | 80 | 1019.2 |
| 20260902062009 | 54 | 344 | 0.0 | 0.0 | 0.00 | 0.00 | 0.00 | 76 | 1019.3 |
| 20260902061010 | 55 | 344 | 0.0 | 0.0 | 0.00 | 0.00 | 0.00 | 75 | 1019.3 |
| 20260902060009 | 55 | 344 | 0.0 | 0.0 | 0.00 | 0.00 | 0.00 | 73 | 1019.3 |
| 20260902054009 | 55 | 344 | 0.0 | 1.0 | 0.00 | 0.00 | 0.00 | 73 | 1019.5 |
| 20260902053010 | 55 | 344 | 0.0 | 0.0 | 0.00 | 0.00 | 0.00 | 71 | 1019.5 |
| 20260902052010 | 55 | 344 | 0.0 | 0.0 | 0.00 | 0.00 | 0.00 | 69 | 1019.5 |
| 20260902051010 | 56 | 344 | 0.0 | 0.0 | 0.00 | 0.00 | 0.00 | 67 | 1019.5 |
| 20260902050010 | 56 | 344 | 0.0 | 0.0 | 0.00 | 0.00 | 0.00 | 65 | 1019.4 |
| 20260902045009 | 56 | 344 | 0.0 | 0.0 | 0.00 | 0.00 | 0.00 | 63 | 1019.3 |
| 20260902044009 | 56 | 344 | 0.0 | 0.0 | 0.00 | 0.00 | 0.00 | 61 | 1019.2 |
| 20260902043010 | 57 | 344 | 0.0 | 0.0 | 0.00 | 0.00 | 0.00 | 59 | 1019.1 |
| 20260902042009 | 58 | 344 | 0.0 | 0.0 | 0.00 | 0.00 | 0.00 | 56 | 1019.1 |
| 20260902041009 | 58 | 344 | 0.0 | 0.0 | 0.00 | 0.00 | 0.00 | 54 | 1019.0 |
| 20260902040009 | 59 | 344 | 0.0 | 0.0 | 0.00 | 0.00 | 0.00 | 53 | 1018.6 |
| 20260902034009 | 60 | 344 | 0.0 | 0.0 | 0.00 | 0.00 | 0.00 | 50 | 1018.6 |
| 20260902033010 | 61 | 344 | 0.0 | 0.0 | 0.00 | 0.00 | 0.00 | 49 | 1018.5 |
| 20260902032009 | 61 | 344 | 0.0 | 0.0 | 0.00 | 0.00 | 0.00 | 49 | 1018.4 |
| 20260902031009 | 62 | 344 | 0.0 | 0.0 | 0.00 | 0.00 | 0.00 | 48 | 1018.4 |
| 20260902030009 | 63 | 344 | 0.0 | 0.0 | 0.00 | 0.00 | 0.00 | 48 | 1018.4 |
| 20260902025010 | 63 | 344 | 0.0 | 0.0 | 0.00 | 0.00 | 0.00 | 47 | 1018.4 |
| 20260902023009 | 65 | 344 | 0.0 | 0.0 | 0.00 | 0.00 | 0.00 | 46 | 1018.2 |
| 20260902021009 | 66 | 344 | 0.0 | 0.0 | 0.00 | 0.00 | 0.00 | 44 | 1018.0 |
| 20260902020009 | 67 | 344 | 0.0 | 0.0 | 0.00 | 0.00 | 0.00 | 43 | 1017.9 |
| 20260902013010 | 68 | 311 | 0.0 | 6.0 | 0.00 | 0.00 | 0.00 | 41 | 1018.0 |
| 20260902012009 | 68 | 332 | 0.0 | 9.0 | 0.00 | 0.00 | 0.00 | 40 | 1018.0 |
| 20260902011009 | 69 | 8 | 2.0 | 7.0 | 0.00 | 0.00 | 0.00 | 39 | 1018.1 |
| 20260902010009 | 70 | 287 | 1.0 | 10.0 | 0.00 | 0.00 | 0.00 | 38 | 1018.1 |
| 20260902003010 | 72 | 0 | 2.0 | 7.0 | 0.00 | 0.00 | 0.00 | 36 | 1018.1 |
| 20260902001009 | 74 | 250 | 0.0 | 6.0 | 0.00 | 0.00 | 0.00 | 34 | 1018.3 |
| 20260902000009 | 74 | 271 | 0.0 | 9.0 | 0.00 | 0.00 | 0.00 | 33 | 1018.4 |
| 20260901235009 | 74 | 239 | 1.0 | 10.0 | 0.00 | 0.00 | 0.00 | 33 | 1018.5 |
| 20260901233010 | 75 | 229 | 0.0 | 5.0 | 0.00 | 0.00 | 0.00 | 33 | 1018.5 |
| 20260901232009 | 75 | 289 | 1.0 | 8.0 | 0.00 | 0.00 | 0.00 | 32 | 1018.5 |
| 20260901231009 | 75 | 282 | 0.0 | 8.0 | 0.00 | 0.00 | 0.00 | 32 | 1018.6 |
| 20260901230010 | 75 | 114 | 1.0 | 6.0 | 0.00 | 0.00 | 0.00 | 34 | 1018.5 |
| 20260901225010 | 74 | 347 | 2.0 | 9.0 | 0.00 | 0.00 | 0.00 | 35 | 1018.6 |
| 20260901224010 | 73 | 297 | 1.0 | 12.0 | 0.00 | 0.00 | 0.00 | 35 | 1018.6 |
| 20260901223010 | 73 | 311 | 0.0 | 8.0 | 0.00 | 0.00 | 0.00 | 36 | 1018.6 |
| 20260901222010 | 73 | 16 | 1.0 | 9.0 | 0.00 | 0.00 | 0.00 | 36 | 1018.8 |
| 20260901220009 | 75 | 123 | 3.0 | 9.0 | 0.00 | 0.00 | 0.00 | 34 | 1018.9 |
| 20260901215010 | 74 | 0 | 2.0 | 14.0 | 0.00 | 0.00 | 0.00 | 34 | 1019.0 |
| 20260901214009 | 74 | 255 | 2.0 | 13.0 | 0.00 | 0.00 | 0.00 | 34 | 1019.0 |
| 20260901213009 | 74 | 5 | 1.0 | 7.0 | 0.00 | 0.00 | 0.00 | 35 | 1019.0 |
| 20260901212010 | 74 | 209 | 5.0 | 12.0 | 0.00 | 0.00 | 0.00 | 34 | 1018.9 |
| 20260901211010 | 75 | 253 | 0.0 | 9.0 | 0.00 | 0.00 | 0.00 | 33 | 1019.0 |
| 20260901210010 | 75 | 73 | 2.0 | 8.0 | 0.00 | 0.00 | 0.00 | 33 | 1018.9 |
| 20260901205010 | 76 | 347 | 3.0 | 10.0 | 0.00 | 0.00 | 0.00 | 28 | 1018.9 |
| 20260901204009 | 77 | 321 | 3.0 | 10.0 | 0.00 | 0.00 | 0.00 | 28 | 1018.8 |
| 20260901203010 | 77 | 143 | 3.0 | 9.0 | 0.00 | 0.00 | 0.00 | 28 | 1018.8 |
| 20260901202010 | 77 | 170 | 2.0 | 9.0 | 0.00 | 0.00 | 0.00 | 27 | 1018.8 |
| 20260901201009 | 77 | 295 | 1.0 | 9.0 | 0.00 | 0.00 | 0.00 | 28 | 1018.8 |
| 20260901200011 | 76 | 341 | 1.0 | 8.0 | 0.00 | 0.00 | 0.00 | 28 | 1019.0 |
| 20260901193009 | 76 | 312 | 1.0 | 7.0 | 0.00 | 0.00 | 0.00 | 29 | 1019.2 |
| 20260901192009 | 75 | 13 | 0.0 | 9.0 | 0.00 | 0.00 | 0.00 | 29 | 1019.2 |
| 20260901191009 | 74 | 185 | 1.0 | 9.0 | 0.00 | 0.00 | 0.00 | 31 | 1019.2 |
| 20260901185010 | 71 | 250 | 2.0 | 9.0 | 0.00 | 0.00 | 0.00 | 44 | 1019.3 |
| 20260901184009 | 71 | 16 | 3.0 | 9.0 | 0.00 | 0.00 | 0.00 | 46 | 1019.2 |
| 20260901182010 | 68 | 354 | 2.0 | 9.0 | 0.00 | 0.00 | 0.00 | 51 | 1019.2 |
| 20260901181009 | 67 | 221 | 2.0 | 12.0 | 0.00 | 0.00 | 0.00 | 54 | 1019.2 |
| 20260901180009 | 66 | 335 | 0.0 | 10.0 | 0.00 | 0.00 | 0.00 | 56 | 1019.1 |
| 20260901175010 | 65 | 326 | 2.0 | 12.0 | 0.00 | 0.00 | 0.00 | 58 | 1019.2 |
| 20260901174010 | 64 | 1 | 8.0 | 13.0 | 0.00 | 0.00 | 0.00 | 60 | 1019.0 |
| 20260901173010 | 63 | 1 | 2.0 | 13.0 | 0.00 | 0.00 | 0.00 | 62 | 1018.9 |
| 20260901172010 | 63 | 41 | 3.0 | 8.0 | 0.00 | 0.00 | 0.00 | 63 | 1018.9 |
| 20260901170011 | 62 | 328 | 6.0 | 14.0 | 0.00 | 0.00 | 0.00 | 64 | 1018.8 |
| 20260901165009 | 61 | 353 | 5.0 | 13.0 | 0.00 | 0.00 | 0.00 | 64 | 1018.6 |
| 20260901163009 | 61 | 313 | 1.0 | 8.0 | 0.00 | 0.00 | 0.00 | 65 | 1018.4 |
| 20260901162009 | 61 | 351 | 2.0 | 7.0 | 0.00 | 0.00 | 0.00 | 64 | 1018.2 |
| 20260901160009 | 61 | 0 | 0.0 | 5.0 | 0.00 | 0.00 | 0.00 | 68 | 1018.1 |
| 20260901155010 | 59 | 357 | 0.0 | 6.0 | 0.00 | 0.00 | 0.00 | 72 | 1018.0 |
| 20260901153010 | 58 | 86 | 0.0 | 0.0 | 0.00 | 0.00 | 0.00 | 77 | 1017.5 |
| 20260901150009 | 55 | 86 | 0.0 | 0.0 | 0.00 | 0.00 | 0.00 | 90 | 1017.3 |
| 20260901145010 | 54 | 86 | 0.0 | 0.0 | 0.00 | 0.00 | 0.00 | 92 | 1017.3 |
| 20260901144009 | 53 | 86 | 0.0 | 0.0 | 0.00 | 0.00 | 0.00 | 94 | 1017.2 |
| 20260901143009 | 52 | 86 | 0.0 | 0.0 | 0.00 | 0.00 | 0.00 | 94 | 1017.2 |
| 20260901142009 | 51 | 86 | 0.0 | 0.0 | 0.00 | 0.00 | 0.00 | 92 | 1017.1 |
| 20260901141010 | 51 | 86 | 0.0 | 0.0 | 0.00 | 0.00 | 0.00 | 92 | 1017.1 |
| 20260901135010 | 51 | 86 | 0.0 | 0.0 | 0.00 | 0.00 | 0.00 | 90 | 1017.0 |
| 20260901134009 | 52 | 86 | 0.0 | 0.0 | 0.00 | 0.00 | 0.00 | 88 | 1017.0 |
| 20260901132009 | 52 | 86 | 0.0 | 0.0 | 0.00 | 0.00 | 0.00 | 83 | 1016.8 |
| 20260901131010 | 52 | 86 | 0.0 | 0.0 | 0.00 | 0.00 | 0.00 | 77 | 1016.9 |
| 20260901130009 | 53 | 86 | 0.0 | 0.0 | 0.00 | 0.00 | 0.00 | 73 | 1016.8 |
| 20260901125012 | 52 | 86 | 0.0 | 0.0 | 0.00 | 0.00 | 0.00 | 72 | 1016.4 |
| 20260901124009 | 52 | 86 | 0.0 | 5.0 | 0.00 | 0.00 | 0.00 | 74 | 1016.2 |
| 20260901122009 | 52 | 104 | 0.0 | 0.0 | 0.00 | 0.00 | 0.00 | 73 | 1016.2 |
| 20260901121009 | 52 | 104 | 0.0 | 0.0 | 0.00 | 0.00 | 0.00 | 72 | 1016.2 |
| 20260901120009 | 52 | 104 | 0.0 | 0.0 | 0.00 | 0.00 | 0.00 | 72 | 1016.2 |
| 20260901114009 | 53 | 113 | 1.0 | 3.0 | 0.00 | 0.00 | 0.00 | 72 | 1016.2 |
| 20260901113009 | 53 | 89 | 0.0 | 0.0 | 0.00 | 0.00 | 0.00 | 72 | 1016.2 |
| 20260901112009 | 53 | 89 | 0.0 | 0.0 | 0.00 | 0.00 | 0.00 | 72 | 1016.2 |
| 20260901111009 | 53 | 89 | 0.0 | 0.0 | 0.00 | 0.00 | 0.00 | 71 | 1016.0 |
| 20260901110010 | 53 | 89 | 0.0 | 0.0 | 0.00 | 0.00 | 0.00 | 71 | 1015.9 |
| 20260901105009 | 54 | 89 | 0.0 | 0.0 | 0.00 | 0.00 | 0.00 | 72 | 1015.9 |
| 20260901103009 | 54 | 89 | 0.0 | 0.0 | 0.00 | 0.00 | 0.00 | 71 | 1016.1 |
| 20260901101010 | 54 | 89 | 0.0 | 0.0 | 0.00 | 0.00 | 0.00 | 70 | 1016.1 |
| 20260901100009 | 55 | 89 | 0.0 | 0.0 | 0.00 | 0.00 | 0.00 | 69 | 1016.1 |